Location: Limerick
(52.6650°N, 8.6230°W)
Time: 19:48:23
(UTC+01:00)

ISS - Pass Details

Date: 19 July 2017
Orbit: 400 x 408 km, 51.6° (Epoch: 21 July)

Event Time Altitude Azimuth Distance (km) Brightness Sun altitude
Exits shadow 01:10:58 14° 103° (ESE) 1,223 -1.6 -16.2°
Drops below altitude 10° 01:11:42 10° 94° (E) 1,455 -1.1 -16.2°
Sets 01:14:02 0° 80° (E) 2,318 0.1 -16.3°
